Simultaneous Nadir Overpasses (SNOs) Predictions

Prediction of SNOs between GOES-17 and NOAA-19 Satellite Orbit:

Table of predicted SNOs for the next 14.0 days since TLE Epoch: 3/2/2024
Index Date Time (GOES-17) GOES-17 Lat,Lon NOAA-19 Lat,Lon Distance(km) Time Diff (sec)
1 03/02/2024 03:54:57 -0.00,-104.68 0.47,-102.51 246.83 7
2 03/04/2024 16:13:26 -0.00,-104.69 0.57,-107.21 286.89 80
3 03/05/2024 16:03:54 -0.01,-104.69 -0.10,-104.24 51.75 80
4 03/06/2024 15:51:41 -0.01,-104.69 -0.77,-101.26 390.40 80
5 03/08/2024 04:23:36 0.01,-104.68 -0.99,-108.92 484.67 80
6 03/09/2024 04:11:24 0.01,-104.68 -0.27,-105.96 146.01 80
7 03/10/2024 03:56:32 0.00,-104.68 0.40,-102.99 192.83 80
8 03/12/2024 16:16:10 -0.00,-104.69 0.68,-107.66 339.72 80
9 03/13/2024 16:03:58 -0.00,-104.69 -0.00,-104.70 0.66 80
10 03/14/2024 15:54:26 -0.01,-104.69 -0.69,-101.73 338.30 80
